Weather History for KHFJ - October, 2013

Change the Weather History Date:

Tuesday, October 22, 2013

  Actual Average (KJLN) Record (KJLN)
Temperature  
Mean Temperature 50 °F 58 °F  
Max Temperature 64 °F 70 °F 84 °F (1963)
Min Temperature 35 °F 47 °F 27 °F (1982)
Degree Days  
Heating Degree Days 16 8  
Month to date heating degree days 127  
Since 1 July heating degree days 169  
Cooling Degree Days 0 1  
Month to date cooling degree days 40  
Year to date cooling degree days 1682  
Moisture  
Dew Point 38 °F    
Average Humidity 68    
Maximum Humidity 93    
Minimum Humidity 37    
Precipitation  
Precipitation 0.00 in 0.14 in 2.31 in (1972)
Month to date precipitation 2.89  
Year to date precipitation 38.81  
Sea Level Pressure  
Sea Level Pressure 30.01 in    
Wind  
Wind Speed 8 mph (WSW)    
Max Wind Speed 18 mph    
Max Gust Speed 25 mph    
Visibility 10 miles    
Events      
T = Trace of Precipitation, MM = Missing Value Source: NWS Daily Summary

Daily Weather History Graph

Daily Weather History Graph

Search for Another Location

Airport or City:

Trip Planner

Search our weather history database for the weather conditions in past years. The results will help you decide how hot, cold, wet, or windy it might be!

Date:

Astronomy

Oct. 22, 2013 Rise Set
Actual Time 7:30 AM CDT 6:29 PM CDT
Civil Twilight 7:04 AM CDT 6:56 PM CDT
Nautical Twilight 6:33 AM CDT 7:26 PM CDT
Astronomical Twilight 6:03 AM CDT 7:56 PM CDT
Moon 9:14 PM CDT (10/22) 10:55 AM CDT (10/22)
Length of Visible Light 11h 52m
Length of Day
10h 59m
Waning Gibbous, 86% of the Moon is Illuminated
Oct 22
Waning Gibbous
Oct 26
Last Quarter
Nov 3
New
Nov 9
First Quarter
Nov 17
Full

Hourly Weather History & Observations

Time (CDT) Temp. Windchill Dew Point Humidity Pressure Visibility Wind Dir Wind Speed Gust Speed Precip Events Conditions
12:15 AM 37.4 °F 33.8 °F 35.6 °F 93% 30.08 in 10.0 mi SSE 4.6 mph - N/A   Clear
12:35 AM 37.4 °F 33.8 °F 35.6 °F 93% 30.08 in 10.0 mi SSE 4.6 mph - N/A   Clear
12:55 AM 37.4 °F 34.9 °F 35.6 °F 93% 30.08 in 10.0 mi SSE 3.5 mph - N/A   Clear
1:15 AM 37.4 °F 33.8 °F 35.6 °F 93% 30.08 in 10.0 mi SSE 4.6 mph - N/A   Clear
1:35 AM 37.4 °F 33.8 °F 35.6 °F 93% 30.07 in 10.0 mi SSE 4.6 mph - N/A   Clear
1:55 AM 37.4 °F 33.8 °F 35.6 °F 93% 30.07 in 10.0 mi SSE 4.6 mph - N/A   Clear
2:15 AM 37.4 °F 33.8 °F 33.8 °F 87% 30.07 in 10.0 mi SSE 4.6 mph - N/A   Clear
2:35 AM 37.4 °F 33.8 °F 33.8 °F 87% 30.07 in 10.0 mi South 4.6 mph - N/A   Clear
2:55 AM 37.4 °F 34.9 °F 33.8 °F 87% 30.06 in 10.0 mi South 3.5 mph - N/A   Clear
3:15 AM 37.4 °F 34.9 °F 35.6 °F 93% 30.05 in 10.0 mi South 3.5 mph - N/A   Clear
3:35 AM 37.4 °F 33.8 °F 35.6 °F 93% 30.05 in 10.0 mi South 4.6 mph - N/A   Clear
3:55 AM 37.4 °F 34.9 °F 33.8 °F 87% 30.05 in 10.0 mi SSW 3.5 mph - N/A   Clear
4:15 AM 35.6 °F - 33.8 °F 93% 30.05 in 10.0 mi Calm Calm - N/A   Clear
4:35 AM 35.6 °F 31.7 °F 33.8 °F 93% 30.05 in 10.0 mi SSW 4.6 mph - N/A   Clear
4:55 AM 35.6 °F 31.7 °F 33.8 °F 93% 30.05 in 10.0 mi SSW 4.6 mph - N/A   Clear
5:15 AM 35.6 °F 31.7 °F 33.8 °F 93% 30.05 in 10.0 mi SSW 4.6 mph - N/A   Clear
5:35 AM 35.6 °F 30.7 °F 33.8 °F 93% 30.05 in 10.0 mi South 5.8 mph - N/A   Clear
5:55 AM 37.4 °F 32.1 °F 35.6 °F 93% 30.05 in 10.0 mi South 6.9 mph - N/A   Clear
6:15 AM 37.4 °F 32.8 °F 35.6 °F 93% 30.04 in 10.0 mi South 5.8 mph - N/A   Clear
6:35 AM 37.4 °F 32.1 °F 35.6 °F 93% 30.03 in 10.0 mi South 6.9 mph - N/A   Clear
6:55 AM 37.4 °F 31.4 °F 35.6 °F 93% 30.04 in 10.0 mi SSW 8.1 mph - N/A   Clear
7:15 AM 37.4 °F 30.8 °F 35.6 °F 93% 30.04 in 10.0 mi SSW 9.2 mph - N/A   Scattered Clouds
7:35 AM 41.0 °F 36.4 °F 35.6 °F 81% 30.03 in 10.0 mi South 6.9 mph - N/A   Overcast
7:55 AM 41.0 °F 36.4 °F 37.4 °F 87% 30.03 in 10.0 mi South 6.9 mph - N/A   Overcast
8:15 AM 42.8 °F 38.0 °F 37.4 °F 81% 30.03 in 10.0 mi SSW 8.1 mph - N/A   Mostly Cloudy
8:35 AM 42.8 °F 36.6 °F 37.4 °F 81% 30.02 in 10.0 mi South 11.5 mph - N/A   Mostly Cloudy
8:55 AM 44.6 °F 38.1 °F 37.4 °F 76% 30.01 in 10.0 mi SSW 13.8 mph 17.3 mph N/A   Overcast
9:15 AM 44.6 °F 39.2 °F 37.4 °F 76% 30.02 in 10.0 mi SSW 10.4 mph 18.4 mph N/A   Overcast
9:35 AM 46.4 °F 40.4 °F 35.6 °F 66% 30.01 in 10.0 mi SSW 13.8 mph 19.6 mph N/A   Overcast
9:55 AM 46.4 °F 40.1 °F 35.6 °F 66% 30.01 in 10.0 mi SW 15.0 mph - N/A   Overcast
10:15 AM 48.2 °F - 35.6 °F 62% 30.00 in 10.0 mi SSW 16.1 mph 20.7 mph N/A   Overcast
10:35 AM 50.0 °F - 37.4 °F 62% 30.00 in 10.0 mi SW 16.1 mph - N/A   Mostly Cloudy
10:55 AM 51.8 °F - 37.4 °F 58% 30.00 in 10.0 mi SW 15.0 mph 24.2 mph N/A   Scattered Clouds
11:15 AM 53.6 °F - 39.2 °F 58% 29.99 in 10.0 mi SW 15.0 mph 20.7 mph N/A   Clear
11:35 AM 55.4 °F - 39.2 °F 54% 29.98 in 10.0 mi WSW 18.4 mph 25.3 mph N/A   Clear
11:55 AM 55.4 °F - 41.0 °F 58% 29.97 in 10.0 mi SW 16.1 mph 21.9 mph N/A   Clear
12:15 PM 57.2 °F - 41.0 °F 55% 29.97 in 10.0 mi SW 13.8 mph 19.6 mph N/A   Clear
12:35 PM 59.0 °F - 42.8 °F 55% 29.96 in 10.0 mi WSW 12.7 mph 17.3 mph N/A   Clear
12:55 PM 60.8 °F - 42.8 °F 52% 29.96 in 10.0 mi WSW 13.8 mph 18.4 mph N/A   Clear
1:15 PM 60.8 °F - 42.8 °F 52% 29.96 in 10.0 mi WSW 10.4 mph 16.1 mph N/A   Clear
1:35 PM 60.8 °F - 42.8 °F 52% 29.95 in 10.0 mi West 13.8 mph 18.4 mph N/A   Clear
1:55 PM 60.8 °F - 42.8 °F 52% 29.95 in 10.0 mi West 13.8 mph 20.7 mph N/A   Clear
2:15 PM 60.8 °F - 42.8 °F 52% 29.94 in 10.0 mi West 12.7 mph 19.6 mph N/A   Clear
2:35 PM 62.6 °F - 42.8 °F 48% 29.93 in 10.0 mi WNW 16.1 mph 21.9 mph N/A   Clear
2:55 PM 62.6 °F - 42.8 °F 48% 29.94 in 10.0 mi WNW 12.7 mph 25.3 mph N/A   Scattered Clouds
3:15 PM 62.6 °F - 42.8 °F 48% 29.94 in 10.0 mi West 13.8 mph 19.6 mph N/A   Scattered Clouds
3:35 PM 62.6 °F - 42.8 °F 48% 29.94 in 10.0 mi WNW 15.0 mph 24.2 mph N/A   Scattered Clouds
3:55 PM 62.6 °F - 41.0 °F 45% 29.94 in 10.0 mi West 15.0 mph 21.9 mph N/A   Scattered Clouds
4:15 PM 64.4 °F - 42.8 °F 45% 29.94 in 10.0 mi West 17.3 mph 24.2 mph N/A   Mostly Cloudy
4:35 PM 64.4 °F - 41.0 °F 42% 29.93 in 10.0 mi WNW 13.8 mph 25.3 mph N/A   Mostly Cloudy
4:55 PM 64.4 °F - 41.0 °F 42% 29.93 in 10.0 mi WNW 15.0 mph 20.7 mph N/A   Mostly Cloudy
5:15 PM 64.4 °F - 37.4 °F 37% 29.94 in 10.0 mi WNW 18.4 mph 24.2 mph N/A   Scattered Clouds
5:35 PM 62.6 °F - 35.6 °F 37% 29.95 in 10.0 mi WNW 13.8 mph 24.2 mph N/A   Clear
5:55 PM 60.8 °F - 35.6 °F 39% 29.95 in 10.0 mi WNW 13.8 mph 21.9 mph N/A   Clear
6:15 PM 60.8 °F - 35.6 °F 39% 29.95 in 10.0 mi WNW 9.2 mph - N/A   Clear
6:35 PM 59.0 °F - 35.6 °F 42% 29.96 in 10.0 mi NW 8.1 mph - N/A   Clear
6:55 PM 57.2 °F - 35.6 °F 44% 29.97 in 10.0 mi NW 9.2 mph - N/A   Clear
7:15 PM 55.4 °F - 37.4 °F 51% 29.98 in 10.0 mi NW 11.5 mph - N/A   Clear
7:35 PM 55.4 °F - 37.4 °F 51% 29.99 in 10.0 mi NW 9.2 mph - N/A   Scattered Clouds
7:55 PM 55.4 °F - 37.4 °F 51% 30.00 in 10.0 mi NNW 6.9 mph - N/A   Mostly Cloudy
8:15 PM 53.6 °F - 37.4 °F 54% 30.01 in 10.0 mi NNW 8.1 mph - N/A   Scattered Clouds
8:35 PM 51.8 °F - 37.4 °F 58% 30.01 in 10.0 mi NNW 8.1 mph - N/A   Clear
8:55 PM 51.8 °F - 37.4 °F 58% 30.02 in 10.0 mi NNW 6.9 mph - N/A   Clear
9:35 PM 50.0 °F - 37.4 °F 62% 30.03 in 10.0 mi North 5.8 mph - N/A   Clear
9:55 PM 48.2 °F - 37.4 °F 66% 30.04 in 10.0 mi North 4.6 mph - N/A   Clear
10:15 PM 46.4 °F 44.3 °F 37.4 °F 71% 30.04 in 10.0 mi North 4.6 mph - N/A   Clear
10:35 PM 46.4 °F 43.5 °F 37.4 °F 71% 30.05 in 10.0 mi North 5.8 mph - N/A   Clear
10:55 PM 44.6 °F 42.2 °F 37.4 °F 76% 30.06 in 10.0 mi North 4.6 mph - N/A   Clear
11:15 PM 44.6 °F 40.7 °F 37.4 °F 76% 30.06 in 10.0 mi North 6.9 mph - N/A   Clear
11:35 PM 44.6 °F 40.7 °F 37.4 °F 76% 30.06 in 10.0 mi North 6.9 mph - N/A   Clear
11:55 PM 44.6 °F 40.7 °F 37.4 °F 76% 30.06 in 10.0 mi North 6.9 mph - N/A   Clear